TimeCDT,TemperatureF,Dew PointF,Humidity,Sea Level PressureIn,VisibilityMPH,Wind Direction,Wind SpeedMPH,Gust SpeedMPH,PrecipitationIn,Events,Conditions,WindDirDegrees,DateUTC
12:15 AM,64.4,53.6,68,30.08,10.0,North,5.8,-,N/A,,Clear,350,2013-07-27 05:15:00
12:35 AM,64.4,53.6,68,30.08,10.0,Calm,Calm,-,N/A,,Clear,0,2013-07-27 05:35:00
12:55 AM,62.6,53.6,72,30.07,10.0,Calm,Calm,-,N/A,,Clear,0,2013-07-27 05:55:00
1:15 AM,60.8,55.4,82,30.08,10.0,Calm,Calm,-,N/A,,Clear,0,2013-07-27 06:15:00
1:35 AM,60.8,55.4,82,30.08,10.0,Calm,Calm,-,N/A,,Clear,0,2013-07-27 06:35:00
1:55 AM,59.0,55.4,88,30.08,10.0,NW,3.5,-,N/A,,Clear,310,2013-07-27 06:55:00
2:15 AM,57.2,55.4,94,30.07,10.0,Calm,Calm,-,N/A,,Clear,0,2013-07-27 07:15:00
2:35 AM,57.2,55.4,94,30.07,10.0,Calm,Calm,-,N/A,,Clear,0,2013-07-27 07:35:00
2:55 AM,57.2,55.4,94,30.08,10.0,Calm,Calm,-,N/A,,Clear,0,2013-07-27 07:55:00
3:15 AM,55.4,55.4,100,30.07,10.0,Calm,Calm,-,N/A,,Clear,0,2013-07-27 08:15:00
3:35 AM,55.4,55.4,100,30.07,10.0,Calm,Calm,-,N/A,,Clear,0,2013-07-27 08:35:00
3:55 AM,55.4,55.4,100,30.07,10.0,Calm,Calm,-,N/A,,Clear,0,2013-07-27 08:55:00
4:15 AM,55.4,55.4,100,30.06,10.0,Calm,Calm,-,N/A,,Clear,0,2013-07-27 09:15:00
4:35 AM,53.6,53.6,100,30.07,10.0,Calm,Calm,-,N/A,,Clear,0,2013-07-27 09:35:00
4:55 AM,53.6,53.6,100,30.07,10.0,Calm,Calm,-,N/A,,Clear,0,2013-07-27 09:55:00
5:15 AM,53.6,53.6,100,30.06,10.0,Calm,Calm,-,N/A,,Clear,0,2013-07-27 10:15:00
5:35 AM,53.6,53.6,100,30.07,10.0,Calm,Calm,-,N/A,,Clear,0,2013-07-27 10:35:00
5:55 AM,53.6,53.6,100,30.08,10.0,Calm,Calm,-,N/A,,Clear,0,2013-07-27 10:55:00
6:15 AM,53.6,53.6,100,30.09,10.0,Calm,Calm,-,N/A,,Clear,0,2013-07-27 11:15:00
6:35 AM,53.6,53.6,100,30.10,10.0,Calm,Calm,-,N/A,,Clear,0,2013-07-27 11:35:00
6:55 AM,53.6,53.6,100,30.08,10.0,Calm,Calm,-,N/A,,Clear,0,2013-07-27 11:55:00
7:15 AM,55.4,55.4,100,30.09,10.0,Calm,Calm,-,N/A,,Clear,0,2013-07-27 12:15:00
7:35 AM,57.2,55.4,94,30.09,10.0,Calm,Calm,-,N/A,,Scattered Clouds,0,2013-07-27 12:35:00
7:55 AM,59.0,55.4,88,30.10,10.0,Calm,Calm,-,N/A,,Scattered Clouds,0,2013-07-27 12:55:00
8:15 AM,60.8,55.4,82,30.10,10.0,Calm,Calm,-,N/A,,Scattered Clouds,0,2013-07-27 13:15:00
8:35 AM,62.6,55.4,77,30.11,10.0,Calm,Calm,-,N/A,,Scattered Clouds,0,2013-07-27 13:35:00
8:55 AM,64.4,53.6,68,30.11,10.0,NW,4.6,-,N/A,,Scattered Clouds,310,2013-07-27 13:55:00
9:15 AM,64.4,53.6,68,30.12,10.0,NW,4.6,-,N/A,,Clear,310,2013-07-27 14:15:00
9:35 AM,68.0,51.8,56,30.11,10.0,NNW,5.8,-,N/A,,Clear,330,2013-07-27 14:35:00
9:55 AM,68.0,51.8,56,30.10,10.0,NNW,5.8,-,N/A,,Clear,330,2013-07-27 14:55:00
10:15 AM,69.8,51.8,53,30.10,10.0,WNW,6.9,-,N/A,,Clear,300,2013-07-27 15:15:00
10:35 AM,69.8,50.0,49,30.09,10.0,North,9.2,-,N/A,,Clear,350,2013-07-27 15:35:00
10:55 AM,69.8,50.0,49,30.10,10.0,NW,8.1,-,N/A,,Clear,320,2013-07-27 15:55:00
11:15 AM,69.8,50.0,49,30.09,10.0,North,8.1,-,N/A,,Scattered Clouds,350,2013-07-27 16:15:00
11:35 AM,71.6,48.2,43,30.09,10.0,NNW,11.5,-,N/A,,Scattered Clouds,340,2013-07-27 16:35:00
11:55 AM,71.6,48.2,43,30.08,10.0,NNW,12.7,17.3,N/A,,Mostly Cloudy,330,2013-07-27 16:55:00
12:15 PM,71.6,48.2,43,30.07,10.0,North,5.8,-,N/A,,Mostly Cloudy,350,2013-07-27 17:15:00
12:35 PM,71.6,48.2,43,30.06,10.0,NNW,8.1,-,N/A,,Scattered Clouds,330,2013-07-27 17:35:00
12:55 PM,73.4,46.4,38,30.06,10.0,NW,6.9,-,N/A,,Scattered Clouds,310,2013-07-27 17:55:00
1:15 PM,73.4,46.4,38,30.06,10.0,NNW,10.4,-,N/A,,Unknown,340,2013-07-27 18:15:00
1:35 PM,73.4,46.4,38,30.05,10.0,NNW,9.2,16.1,N/A,,Clear,330,2013-07-27 18:35:00
1:55 PM,73.4,48.2,41,30.04,10.0,WNW,9.2,-,N/A,,Scattered Clouds,290,2013-07-27 18:55:00
2:15 PM,75.2,46.4,36,30.04,10.0,NNW,11.5,-,N/A,,Scattered Clouds,330,2013-07-27 19:15:00
2:35 PM,75.2,46.4,36,30.03,10.0,WNW,11.5,-,N/A,,Clear,300,2013-07-27 19:35:00
2:55 PM,75.2,46.4,36,30.03,10.0,WNW,10.4,16.1,N/A,,Clear,300,2013-07-27 19:55:00
3:15 PM,75.2,46.4,36,30.03,10.0,NNW,11.5,16.1,N/A,,Clear,330,2013-07-27 20:15:00
3:35 PM,75.2,46.4,36,30.02,10.0,NW,12.7,-,N/A,,Clear,310,2013-07-27 20:35:00
3:55 PM,75.2,46.4,36,30.02,10.0,NW,10.4,16.1,N/A,,Clear,320,2013-07-27 20:55:00
4:15 PM,77.0,46.4,34,30.02,10.0,West,11.5,16.1,N/A,,Scattered Clouds,280,2013-07-27 21:15:00
4:35 PM,77.0,46.4,34,30.01,10.0,NNW,9.2,-,N/A,,Scattered Clouds,340,2013-07-27 21:35:00
4:55 PM,77.0,44.6,32,30.01,10.0,WNW,9.2,-,N/A,,Clear,300,2013-07-27 21:55:00
5:15 PM,77.0,42.8,29,30.01,10.0,North,11.5,16.1,N/A,,Clear,350,2013-07-27 22:15:00
5:35 PM,75.2,42.8,31,30.01,10.0,NW,10.4,-,N/A,,Clear,320,2013-07-27 22:35:00
5:55 PM,75.2,42.8,31,30.00,10.0,NW,5.8,-,N/A,,Clear,310,2013-07-27 22:55:00
6:15 PM,75.2,42.8,31,30.00,10.0,WNW,8.1,-,N/A,,Clear,290,2013-07-27 23:15:00
6:35 PM,73.4,42.8,33,30.00,10.0,NW,5.8,-,N/A,,Clear,320,2013-07-27 23:35:00
6:55 PM,73.4,44.6,36,30.00,10.0,NNW,5.8,-,N/A,,Clear,330,2013-07-27 23:55:00
7:15 PM,71.6,44.6,38,29.99,10.0,NW,4.6,-,N/A,,Clear,320,2013-07-28 00:15:00
7:35 PM,71.6,46.4,41,30.00,10.0,NNW,4.6,-,N/A,,Clear,330,2013-07-28 00:35:00
7:55 PM,71.6,50.0,46,30.00,10.0,NNW,4.6,-,N/A,,Clear,340,2013-07-28 00:55:00
8:15 PM,69.8,48.2,46,30.00,10.0,NNW,5.8,-,N/A,,Clear,330,2013-07-28 01:15:00
8:35 PM,68.0,50.0,52,30.00,10.0,Calm,Calm,-,N/A,,Clear,0,2013-07-28 01:35:00
8:55 PM,64.4,51.8,64,30.01,10.0,Calm,Calm,-,N/A,,Clear,0,2013-07-28 01:55:00
9:15 PM,62.6,51.8,68,30.01,10.0,North,3.5,-,N/A,,Clear,350,2013-07-28 02:15:00
9:35 PM,60.8,51.8,72,30.02,10.0,NNW,3.5,-,N/A,,Clear,340,2013-07-28 02:35:00
9:55 PM,60.8,53.6,77,30.03,10.0,Calm,Calm,-,N/A,,Clear,0,2013-07-28 02:55:00
10:15 PM,59.0,53.6,82,30.03,10.0,Calm,Calm,-,N/A,,Clear,0,2013-07-28 03:15:00
10:35 PM,59.0,53.6,82,30.03,10.0,Calm,Calm,-,N/A,,Clear,0,2013-07-28 03:35:00
10:55 PM,57.2,53.6,88,30.02,10.0,Calm,Calm,-,N/A,,Unknown,0,2013-07-28 03:55:00
11:15 PM,55.4,51.8,88,30.03,10.0,Calm,Calm,-,N/A,,Clear,0,2013-07-28 04:15:00
11:35 PM,55.4,53.6,94,30.03,10.0,Calm,Calm,-,N/A,,Clear,0,2013-07-28 04:35:00
11:55 PM,55.4,53.6,94,30.04,10.0,Calm,Calm,-,N/A,,Clear,0,2013-07-28 04:55:00